Regional Weather Roundup
Issued by NWS

Home | Current Version | Previous Version | Text Only | Print | Product List | Glossary On
Versions: 1 2 3 4 5 6 7 8 9 10 11 12 13 14 15 16 17 18 19 20 21 22 23 24 25 26 27 28 29 30 31 32 33 34 35 36 37 38 39 40 41 42 43 44 45 46 47 48 49 50
000
ASUS44 KMEG 241410
RWRTN
TENNESSEE HOURLY STATE WEATHER ROUNDUP
NATIONAL WEATHER SERVICE MEMPHIS TN
900 AM CDT SUN SEP 24 2017

TNZ002-004-019-021-049-052-054-088>092-241500-
WEST TENNESSEE

CITY           SKY/WX    TMP DP  RH WIND       PRES   REMARKS
MEMPHIS INTL   SUNNY     79  70  74 S5        30.03R
NWS MEMPHIS      N/A     75 N/A N/A MISG        N/A
JACKSON        SUNNY     77  72  84 VRB3      30.06R
DYERSBURG      SUNNY     77  71  82 E3        30.05R
SOMERVILLE     SUNNY     77  72  83 S3        30.03S
COVINGTON      SUNNY     75  72  88 SE5       30.04R
BOLIVAR        PTSUNNY   73  70  88 CALM      30.05R
PARIS          SUNNY     75  72  88 SE5       30.05S
HUNTINGDON     SUNNY     77  72  83 CALM      30.05S
LEXINGTON      SUNNY     75  70  83 CALM      30.06R
SELMER         PTSUNNY   75  68  78 S5        30.06R
SAVANNAH       SUNNY     75  68  78 CALM      30.05S
$$

TNZ008-025-027-028-033-062-065-066-241500-
NORTH MIDDLE TENNESSEE

CITY           SKY/WX    TMP DP  RH WIND       PRES   REMARKS
NASHVILLE      MOSUNNY   75  69  81 CALM      30.08S
PORTLAND       SUNNY     75  70  83 S5        30.07S
CLARKSVILLE    SUNNY     74  67  78 SE3       30.07R
SMYRNA         SUNNY     71  68  90 CALM      30.10R
COOKEVILLE     PTSUNNY   72  68  88 CALM      30.10R
GALLATIN       SUNNY     73  68  83 CALM      30.10S
CROSSVILLE     SUNNY     72  65  78 E3        30.16R
$$

TNZ061-075-076-078-094-096-097-241500-
SOUTH MIDDLE TENNESSEE

CITY           SKY/WX    TMP DP  RH WIND       PRES   REMARKS
FAYETTEVILLE   SUNNY     75  68  78 CALM      30.09R
TULLAHOMA      SUNNY     75  64  69 CALM      30.12R
WINCHESTER     SUNNY     75  66  73 E3        30.10R
MCMINNVILLE    SUNNY     73  72  94 CALM      30.11R
COLUMBIA       SUNNY     72 N/A N/A CALM      30.07R
SHELBYVILLE    SUNNY     73  68  83 CALM      30.09S
$$

TNZ017-018-042-046-047-241500-
NORTHEAST TENNESSEE

CITY           SKY/WX    TMP DP  RH WIND       PRES   REMARKS
TRI CITIES     MOSUNNY   68  60  75 E3        30.18R
ELIZABETHTON   SUNNY     72  61  68 VRB6      30.18S
$$

TNZ012-013-036-069-073-074-241500-
CENTRAL EAST TENNESSEE

CITY           SKY/WX    TMP DP  RH WIND       PRES   REMARKS
KNOXVILLE      MOSUNNY   73  65  75 CALM      30.12R
OAK RIDGE      SUNNY     74  65  73 CALM      30.14R
DOWNTOWN KNOXV SUNNY     73  66  78 CALM      30.12R
GATLINBURG     SUNNY     72  63  73 CALM      30.12S
MORRISTOWN     MOSUNNY   75  63  64 E5        30.14R
JACKSBORO      SUNNY     73  64  73 CALM      30.18R
$$

TNZ083-085-099-241500-
SOUTHEAST TENNESSEE

CITY           SKY/WX    TMP DP  RH WIND       PRES   REMARKS
CHATTANOOGA    FOG       69  68  96 CALM      30.12R VSB 1
DAYTON         FOG       68  68 100 CALM      30.11R VSB 0
$$

SKY/WX REPORTED AS FAIR MEANS FEW OR NO CLOUDS BELOW
12 THOUSAND FEET.




USA.gov is the U.S. government's official web portal to all federal, state and local government web resources and services.